Location: Bats
(43.6587°N, 0.4584°W)
Time: 22:52:23
(UTC+00:00)

Cosmos 1656 - Visible Passes

Search period start: 18 April 2026 00:00
Search period end: 28 April 2026 00:00
Orbit: 798 x 846 km, 71.1° (Epoch: 18 April)

Date Brightness Start Highest point End Pass type
(mag) Time Alt. Az. Time Alt. Az. Time Alt. Az.
18 Apr 5.6 00:25:21 10° NW 00:27:19 22° NW 00:27:19 22° NW visible
18 Apr 5.2 22:21:11 10° N 22:25:17 25° NE 22:25:17 25° NE visible
19 Apr 5.3 00:04:15 10° NNW 00:06:41 26° NW 00:06:41 26° NW visible
19 Apr 5.3 22:00:19 10° N 22:04:30 22° NE 22:04:40 22° NE visible
19 Apr 5.1 23:43:08 10° NNW 23:46:04 32° NW 23:46:04 32° NW visible
20 Apr 5.4 21:39:29 10° N 21:43:20 19° NE 21:44:05 19° ENE visible
20 Apr 4.8 23:22:04 10° NNW 23:25:28 39° NW 23:25:28 39° NW visible
21 Apr 5.5 21:18:41 10° N 21:22:10 17° NE 21:23:30 16° ENE visible
21 Apr 4.4 23:01:01 10° NNW 23:04:54 48° NNW 23:04:54 48° NNW visible
22 Apr 5.6 20:57:57 10° N 21:00:59 15° NE 21:02:57 13° ENE visible
22 Apr 4.1 22:40:00 10° NNW 22:44:21 57° N 22:44:21 57° N visible
23 Apr 6.1 00:25:33 10° WNW 00:25:44 10° WNW 00:25:44 10° WNW visible
23 Apr 5.8 20:37:20 10° NNE 20:39:47 13° NE 20:42:15 10° ENE visible
23 Apr 3.9 22:18:59 10° NNW 22:23:49 62° NNE 22:23:49 62° NNE visible
24 Apr 5.9 00:03:59 10° WNW 00:05:13 14° WNW 00:05:13 14° WNW visible
24 Apr 5.8 20:16:53 10° NNE 20:18:34 11° NE 20:20:15 10° ENE visible
24 Apr 3.8 21:57:58 10° NNW 22:03:19 58° ENE 22:03:19 58° ENE visible
24 Apr 5.7 23:42:35 10° NW 23:44:42 17° WNW 23:44:42 17° WNW visible
25 Apr 4.0 21:36:59 10° NNW 21:42:19 50° ENE 21:42:50 48° E visible
25 Apr 5.4 23:21:15 10° NW 23:24:14 22° W 23:24:14 22° W visible
26 Apr 4.2 21:16:02 10° NNW 21:21:14 43° ENE 21:22:23 38° E visible
26 Apr 5.1 23:00:00 10° NW 23:03:47 27° W 23:03:47 27° W visible
27 Apr 4.4 20:55:05 10° N 21:00:09 37° ENE 21:01:58 29° E visible
27 Apr 4.8 22:38:47 10° NW 22:43:22 33° W 22:43:22 33° W visible
